User: anonymous   Login
Location: Unspecified
(0.0000°N, 0.0000°E)
Time: 08:58:33
(UTC+00:00)
Language:

STARLINK-5049 - Orbit

View from above orbital plane
View from above orbital plane
View from above satellite
View from above satellite

Ground track
Ground track

The orbit is defined by the following mean orbital elements,

1 57246U          26144.85405647 +.00000000 +00000-0 +35752-4 0 00009
2 57246  43.0033 309.2981 0001498 263.9219  96.1462 15.27581861    07
Epoch (UTC): 24 May 2026 20:29:50
Eccentricity: 0.0001498
inclination: 43.0033°
perigee height: 482 km
apogee height: 484 km
right ascension of ascending node: 309.2981°
argument of perigee: 263.9219°
revolutions per day: 15.27581861
mean anomaly at epoch: 96.1462°

The dashed part of the orbit path shows where the satellite is in the earth's shadow,  

DLR